Location: Sydney
(46.1500°N, 60.1670°W)
Time: 01:14:12
(UTC-03:00)

Iridium 90 - Visible Passes

Search period start: 01 May 2016 00:00
Search period end: 11 May 2016 00:00
Orbit: 747 x 750 km, 86.4° (Epoch: 30 April)

Date Brightness Start Highest point End Pass type
(mag) Time Alt. Az. Time Alt. Az. Time Alt. Az.
01 May 6.8 21:58:52 10° SSW 22:03:34 38° W 22:08:19 10° NNW visible
02 May 5.6 21:16:20 10° S 21:21:23 82° W 21:26:30 10° N visible
02 May 8.4 23:01:08 10° W 23:02:22 11° WNW 23:03:37 10° NW visible
03 May 7.8 22:15:50 10° SW 22:19:48 23° WNW 22:23:45 10° NNW visible
04 May 6.5 21:32:35 10° SSW 21:37:26 46° W 21:42:20 10° N visible
05 May 5.5 20:50:15 10° S 20:55:19 83° E 21:00:24 10° N visible
05 May 8.3 22:33:44 10° W 22:36:07 13° WNW 22:38:32 10° NW visible
06 May 7.6 21:49:20 10° SW 21:53:36 27° WNW 21:57:54 10° NNW visible
07 May 6.2 21:06:21 10° SSW 21:11:18 56° W 21:16:19 10° N visible
08 May 8.2 22:06:49 10° WSW 22:09:54 16° WNW 22:12:59 10° NNW visible
09 May 7.3 21:22:54 10° SW 21:27:26 32° WNW 21:31:59 10° NNW visible
